Flag for Morocco Weather past 2 weeks in Tangier, Morocco

75 °F

Passing clouds.

Feels Like: 78 °F
Forecast: 67 / 80 °F
Wind: 3 mph from Northeast

Location: Tanger Aerodrome

Current Time: Oct 4, 2015 at 9:17:17 PM

Latest Report: Oct 4, 2015 at 9:00 PM

Visibility: 5 mi

Pressure: 30.15 "Hg

Humidity: 41%

Dew point: 50 °F

Location of TangierLocation

Historic Weather in Tangier — Graph


Tangier temperature yesterday

Maximum temperature yesterday: 77 °F (at 2:00 PM)
Minimum temperature yesterday: 68 °F (at 8:05 AM)
Average temperature yesterday: 72 °F

Past Weeks' High & Low Weather Summary

High90 °F (Oct 4, 1:00 PM)94% (Sep 22, 4:30 AM)30.15 "Hg (Sep 22, 4:30 AM)
Low61 °F (Sep 24, 5:00 AM)22% (Oct 2, 4:30 PM)29.89 "Hg (Sep 29, 3:30 PM)
Average73 °F64%30.03 "Hg
* Reported Sep 19 8:00 PM — Oct 4 8:00 PM, Tangier, Weather by CustomWeather, © 2015

Note: Actual official high and low records may vary slightly from our data, if they occured in-between our weather recording intervals... More about our weather records


Tangier weather history for previous 24 hours

Time TempWeatherWind HumidityBarometerVisibility
8:00 PM
Sun, Oct 4
79 °FPassing clouds.6 mph37%30.12 "Hg5 mi
7:30 PM81 °FPassing clouds.3 mph32%30.12 "Hg5 mi
7:00 PM81 °FPassing clouds.2 mph34%30.12 "Hg5 mi
6:30 PM81 °FPassing clouds.5 mph34%30.12 "Hg5 mi
6:00 PM84 °FPartly sunny.6 mph29%30.12 "HgN/A
5:30 PM84 °FPartly sunny.6 mph31%30.09 "HgN/A
5:00 PM84 °FPartly sunny.6 mph31%30.09 "HgN/A
4:30 PM86 °FPartly sunny.7 mph29%30.09 "HgN/A
4:00 PM86 °FPartly sunny.6 mph25%30.12 "HgN/A
3:00 PM88 °FPartly sunny.6 mph27%30.12 "HgN/A
2:30 PM88 °FPartly sunny.7 mph27%30.12 "HgN/A
2:00 PM88 °FPartly sunny.9 mph27%30.12 "HgN/A
1:30 PM88 °FPassing clouds.6 mph29%30.12 "HgN/A
1:00 PM90 °FPassing clouds.3 mph27%30.12 "HgN/A
12:30 PM88 °FSunny.2 mph29%30.12 "Hg10 mi
12:00 PM86 °FPassing clouds.5 mph31%30.12 "HgN/A
11:30 AM84 °FPartly sunny.6 mph33%30.12 "HgN/A
11:00 AM82 °FPartly sunny.5 mph30%30.12 "HgN/A
10:30 AM81 °FPartly sunny.1 mph34%30.12 "HgN/A
10:00 AM77 °FPartly sunny.No wind42%30.12 "HgN/A
9:30 AM75 °FPartly sunny.1 mph50%30.12 "HgN/A
9:00 AM70 °FPartly sunny.No wind60%30.12 "HgN/A
8:30 AM66 °FPartly sunny.3 mph64%30.09 "HgN/A
8:00 AM64 °FPartly sunny.2 mph68%30.09 "HgN/A
7:30 AM63 °FPartly sunny.No wind68%30.09 "HgN/A
7:00 AM64 °FScattered clouds.3 mph68%30.09 "Hg5 mi
6:30 AM64 °FPassing clouds.2 mph68%30.07 "Hg5 mi
6:00 AM64 °FPassing clouds.2 mph73%30.07 "Hg5 mi
4:30 AM64 °FPassing clouds.3 mph73%30.07 "HgN/A
4:00 AM64 °FPassing clouds.5 mph73%30.07 "HgN/A
3:30 AM64 °FPassing clouds.2 mph68%30.09 "HgN/A
3:00 AM64 °FPassing clouds.3 mph68%30.09 "HgN/A
2:30 AM64 °FPassing clouds.5 mph73%30.09 "HgN/A
2:00 AM64 °FPassing clouds.3 mph68%30.09 "HgN/A
1:30 AM64 °FPassing clouds.No wind68%30.09 "Hg4 mi
1:00 AM66 °FPassing clouds.2 mph68%30.07 "Hg4 mi
12:30 AM68 °FPassing clouds.2 mph69%30.07 "HgN/A
12:00 AM70 °FPassing clouds.2 mph64%30.07 "HgN/A
11:30 PM
Sat, Oct 3
70 °FPassing clouds.3 mph69%30.07 "HgN/A
11:00 PM70 °FPassing clouds.3 mph64%30.07 "Hg5 mi
10:30 PM70 °FPassing clouds.2 mph64%30.07 "Hg5 mi
10:00 PM70 °FPassing clouds.5 mph69%30.07 "Hg5 mi
9:30 PM68 °FPassing clouds.1 mph73%30.07 "Hg5 mi
9:00 PM70 °FPassing clouds.1 mph78%30.07 "Hg5 mi
Weather by CustomWeather, © 2015

See weather overviewHow to use our weather pages